Date,TemperatureHighF,TemperatureAvgF,TemperatureLowF,DewpointHighF,DewpointAvgF,DewpointLowF,HumidityHigh,HumidityAvg,HumidityLow,PressureMaxIn,PressureMinIn,WindSpeedMaxMPH,WindSpeedAvgMPH,GustSpeedMaxMPH,PrecipitationSumIn
2013-1-1,63.1,56.3,51.1,52.8,42.4,34.7,83,61,43,30.15,29.91,0,0,0,0.00
2013-1-2,64.6,56.2,48.7,57.1,48.1,39.6,96,75,54,30.15,29.88,0,0,0,0.00
2013-1-3,48.7,45.5,38.5,45.8,40.4,34.5,95,83,66,30.27,30.09,0,0,0,0.12
2013-1-4,51.8,41.7,33.3,42.2,30.0,18.4,98,68,28,30.33,30.21,0,0,0,0.00
2013-1-5,49.5,41.2,30.9,34.0,24.6,15.7,88,55,27,30.39,30.27,0,0,0,0.00
2013-1-6,54.5,49.2,43.0,45.9,37.9,30.3,91,67,41,30.27,30.09,0,0,0,0.00
2013-1-7,55.6,49.1,40.1,42.6,31.0,20.5,95,54,27,30.39,30.15,0,0,0,0.00
2013-1-8,60.8,52.7,43.0,51.5,37.1,24.1,84,57,43,30.39,30.30,0,0,0,0.00
2013-1-9,68.4,60.2,52.7,55.4,49.3,42.6,92,70,41,30.39,30.30,0,0,0,0.00
2013-1-10,65.7,58.6,55.4,63.6,48.5,33.1,98,72,40,30.44,30.36,0,0,0,0.00
2013-1-11,70.3,60.5,54.5,62.8,56.1,40.0,97,86,56,30.36,30.18,0,0,0,0.04
2013-1-12,73.8,64.3,57.6,68.3,57.0,50.5,98,79,46,30.18,30.09,0,0,0,0.00
2013-1-13,74.5,62.8,57.2,67.2,56.7,46.4,98,83,41,30.18,30.09,0,0,0,0.00
2013-1-14,73.9,62.7,57.6,68.9,58.4,50.1,98,87,45,30.18,30.09,0,0,0,0.00
2013-1-15,70.5,62.9,58.5,65.2,59.1,50.4,98,89,51,30.15,30.03,0,0,0,0.00
2013-1-16,71.6,64.5,59.9,67.6,58.5,50.5,98,83,50,30.06,29.94,0,0,0,0.00
2013-1-17,70.5,61.2,45.9,68.0,54.1,29.9,98,79,48,30.00,29.74,0,0,0,0.16
2013-1-18,53.6,44.5,37.6,34.9,22.7,10.9,85,46,20,30.50,30.00,0,0,0,0.00
2013-1-19,54.5,45.5,35.1,43.8,28.4,17.4,93,54,28,30.48,30.21,0,0,0,0.00
2013-1-20,67.6,54.1,45.5,49.8,31.0,14.4,98,53,15,30.21,30.00,0,0,0,0.00
2013-1-21,66.6,52.8,38.7,39.8,25.6,14.4,73,39,15,30.06,29.91,0,0,0,0.00
2013-1-22,53.1,44.8,33.4,21.3,13.9,6.4,44,30,18,30.24,30.00,0,0,0,0.00
2013-1-23,47.1,38.7,29.3,26.3,10.4,-3.1,56,32,18,30.39,30.15,0,0,0,0.00
2013-1-24,59.9,45.9,30.6,31.2,17.1,-2.9,50,33,21,30.50,30.03,0,0,0,0.00
2013-1-25,42.4,35.0,26.4,25.0,9.4,-6.1,52,35,23,30.48,30.12,0,0,0,0.00
2013-1-26,56.5,43.2,34.2,28.9,19.1,14.7,50,38,26,30.36,30.12,0,0,0,0.00
2013-1-27,47.7,40.7,30.9,26.8,20.3,13.5,66,44,36,30.53,30.33,0,0,0,0.00
2013-1-28,56.7,46.2,37.4,43.9,32.6,20.0,89,60,38,30.48,30.27,0,0,0,0.00
2013-1-29,67.6,55.2,44.2,66.0,50.0,42.3,98,85,48,30.27,30.12,0,0,0,0.00
2013-1-30,66.2,61.8,57.7,62.3,58.5,52.8,98,90,64,30.12,29.59,0,0,0,0.00
2013-1-31,65.5,52.0,44.1,63.4,23.5,8.1,93,38,17,30.12,29.59,0,0,0,0.20
2013-2-1,57.6,45.8,34.2,21.2,10.0,-2.8,35,24,16,30.36,30.09,0,0,0,0.00
2013-2-2,48.7,40.8,28.6,38.6,15.3,-6.4,73,37,20,30.39,30.06,0,0,0,0.00
2013-2-3,59.0,48.9,41.7,26.8,21.3,15.2,52,36,19,30.06,29.88,0,0,0,0.00
2013-2-4,48.7,41.0,31.5,29.8,20.2,15.0,68,45,28,30.15,30.00,0,0,0,0.00
2013-2-5,69.3,53.3,40.5,42.6,30.9,20.8,64,46,17,30.06,29.91,0,0,0,0.00
2013-2-6,68.0,56.1,49.8,46.7,39.0,28.6,81,55,24,30.21,30.00,0,0,0,0.00
2013-2-7,60.8,53.9,47.1,55.7,47.9,39.1,98,81,55,30.18,29.71,0,0,0,0.91
2013-2-8,64.4,56.6,49.3,55.7,40.1,31.0,98,59,29,30.03,29.65,0,0,0,0.08
2013-2-9,59.9,47.5,37.4,38.9,20.7,10.9,78,38,17,30.36,30.03,0,0,0,0.00
2013-2-10,58.1,50.7,37.6,49.9,33.5,22.2,84,54,29,30.42,30.21,0,0,0,0.00
2013-2-11,67.1,61.1,56.3,63.8,57.2,47.3,98,88,67,30.24,30.00,0,0,0,0.51
2013-2-12,61.9,57.6,48.7,59.5,52.4,39.4,98,84,45,30.09,29.91,0,0,0,0.51
2013-2-13,68.2,55.7,48.6,62.2,47.2,34.1,98,77,34,29.94,29.68,0,0,0,0.16
2013-2-14,54.3,49.6,42.3,44.8,29.3,20.3,75,48,28,30.06,29.83,0,0,0,0.00
2013-2-15,58.8,47.1,36.3,45.3,33.1,24.5,98,63,28,30.09,29.94,0,0,0,0.00
2013-2-16,56.7,43.1,33.8,42.7,34.1,24.7,97,74,33,29.97,29.77,0,0,0,0.16
2013-2-17,41.7,34.5,28.6,32.3,13.2,1.9,94,46,21,30.30,29.94,0,0,0,0.00
2013-2-18,51.1,39.7,27.7,26.8,15.4,9.8,69,39,21,30.44,30.27,0,0,0,0.00
2013-2-19,62.6,51.3,36.0,55.8,41.9,26.8,94,73,37,30.27,29.94,0,0,0,0.04
2013-2-20,55.6,51.6,43.3,45.3,30.3,11.2,76,49,18,30.12,30.00,0,0,0,0.00
2013-2-21,53.4,46.0,37.2,40.1,22.7,9.7,71,42,21,30.18,30.09,0,0,0,0.00
2013-2-22,52.5,49.6,44.8,50.1,38.6,21.3,98,68,37,30.24,30.03,0,0,0,0.08
2013-2-23,49.1,45.8,44.1,48.6,45.2,43.5,98,98,98,30.03,29.88,0,0,0,0.39
2013-2-24,66.7,55.5,47.5,51.1,43.1,27.1,98,69,23,29.97,29.88,0,0,0,0.35
2013-2-25,50.7,49.5,44.6,47.6,42.5,23.3,89,79,42,30.09,29.97,0,0,0,0.00
2013-2-26,66.6,56.7,44.6,64.0,55.3,40.7,98,95,74,30.00,29.56,0,0,0,1.02
2013-2-27,61.0,54.2,48.2,55.8,32.0,23.1,95,45,26,29.85,29.65,0,0,0,0.00
2013-2-28,60.4,51.5,41.9,36.8,25.3,17.1,71,39,22,29.85,29.74,0,0,0,0.00
2013-3-1,56.5,47.3,38.8,25.3,20.9,17.4,50,36,25,29.91,29.80,0,0,0,0.00
2013-3-2,54.5,46.1,37.0,34.3,22.9,17.9,79,41,26,29.88,29.80,0,0,0,0.00
2013-3-3,51.8,42.1,36.1,31.9,16.5,10.0,78,38,21,29.97,29.85,0,0,0,0.00
2013-3-4,54.9,41.9,30.7,19.4,12.1,6.4,51,31,18,30.12,29.97,0,0,0,0.00
2013-3-5,63.0,53.0,39.0,50.6,34.5,19.1,80,51,34,30.12,29.65,0,0,0,0.00
2013-3-6,61.9,50.4,42.3,44.1,19.1,11.7,55,30,20,30.03,29.59,0,0,0,0.00
2013-3-7,59.4,47.3,35.8,22.2,19.2,16.2,52,34,22,30.18,30.03,0,0,0,0.00
2013-3-8,59.4,47.7,35.4,20.5,16.3,11.2,48,30,17,30.24,30.12,0,0,0,0.00
2013-3-9,57.6,48.4,37.6,34.5,24.0,15.0,68,39,25,30.30,30.21,0,0,0,0.00
2013-3-10,57.9,48.9,38.7,47.3,35.7,27.9,91,64,33,30.30,30.21,0,0,0,0.00
2013-3-11,67.8,57.2,45.5,56.2,47.3,39.3,97,72,37,30.21,29.91,0,0,0,0.00
2013-3-12,70.7,61.6,57.2,66.4,55.0,37.8,98,81,43,29.91,29.77,0,0,0,0.24
2013-3-13,66.4,56.7,45.5,38.2,21.6,11.2,51,28,15,30.09,29.88,0,0,0,0.00
2013-3-14,55.8,46.5,36.3,15.9,9.6,4.9,34,22,17,30.27,30.06,0,0,0,0.00
2013-3-15,58.5,48.6,34.9,36.7,23.5,13.3,60,38,21,30.21,30.00,0,0,0,0.00
2013-3-16,81.1,64.5,55.4,41.5,33.5,27.0,52,33,14,30.00,29.80,0,0,0,0.00
2013-3-17,80.1,64.5,57.2,45.9,37.5,31.5,51,38,20,30.03,29.88,0,0,0,0.00
2013-3-18,60.8,55.4,51.3,55.9,47.6,37.7,98,77,43,30.09,29.85,0,0,0,0.00
2013-3-19,72.5,60.0,52.5,57.9,42.4,21.2,98,62,17,29.97,29.77,0,0,0,0.35
2013-3-20,59.2,51.7,41.7,27.2,18.2,9.6,56,28,17,30.09,29.80,0,0,0,0.00
2013-3-21,57.0,47.3,39.6,33.2,13.3,1.5,72,29,15,29.94,29.71,0,0,0,0.00
2013-3-22,50.7,43.1,30.7,24.4,11.3,-0.8,39,28,19,30.09,29.91,0,0,0,0.00
2013-3-23,52.5,47.0,41.0,42.7,33.6,20.8,83,61,31,30.06,29.88,0,0,0,0.16
2013-3-24,63.9,52.4,45.9,60.2,46.7,35.4,98,83,50,29.88,29.41,0,0,0,1.69
2013-3-25,56.8,49.3,43.3,44.4,24.4,9.4,92,45,18,29.88,29.53,0,0,0,0.00
2013-3-26,54.1,44.1,34.2,17.9,14.2,10.6,47,31,20,30.12,29.88,0,0,0,0.00
2013-3-27,58.8,46.2,34.3,21.9,16.3,9.6,58,33,17,30.24,30.12,0,0,0,0.00
2013-3-28,60.3,47.1,34.5,19.4,15.1,9.3,45,30,17,30.27,30.15,0,0,0,0.00
2013-3-29,58.8,49.3,35.2,31.6,22.1,16.4,55,35,25,30.33,30.21,0,0,0,0.00
2013-3-30,60.6,54.8,48.9,49.3,37.0,27.4,85,53,36,30.24,30.09,0,0,0,0.00
2013-3-31,70.3,62.0,52.5,56.1,48.2,40.0,89,63,36,30.09,29.85,0,0,0,0.16
2013-4-1,77.0,65.6,59.4,61.7,50.7,36.8,96,65,24,29.91,29.83,0,0,0,0.20
2013-4-2,61.5,57.4,51.4,48.6,31.0,19.4,67,38,22,30.15,29.88,0,0,0,0.00
2013-4-3,60.8,56.2,51.4,51.6,35.1,17.3,93,49,19,30.24,30.06,0,0,0,0.00
2013-4-4,60.1,54.6,50.4,59.5,44.7,26.7,98,73,35,30.24,29.80,0,0,0,0.94
2013-4-5,60.1,49.8,43.9,49.6,40.6,32.6,98,74,36,30.00,29.83,0,0,0,0.00
2013-4-6,63.3,54.0,44.1,52.3,39.4,29.5,98,63,31,30.27,30.00,0,0,0,0.00
2013-4-7,63.1,57.7,51.1,56.2,47.0,41.5,87,68,48,30.27,30.12,0,0,0,0.00
2013-4-8,72.9,64.3,55.2,66.6,52.4,42.4,95,69,35,30.18,30.12,0,0,0,0.00
2013-4-9,74.8,67.2,60.1,66.6,56.9,50.3,94,72,44,30.21,30.12,0,0,0,0.00
2013-4-10,76.1,68.3,62.6,65.3,56.2,46.2,94,69,38,30.15,30.03,0,0,0,0.00
2013-4-11,75.9,68.2,63.0,71.3,60.9,54.0,97,79,48,30.03,29.85,0,0,0,0.00
2013-4-12,76.3,69.4,65.8,72.2,65.3,54.7,98,88,53,29.85,29.71,0,0,0,1.61
2013-4-13,74.5,64.2,56.7,68.7,43.3,27.3,98,51,18,30.03,29.77,0,0,0,0.00
2013-4-14,70.0,61.7,53.1,62.6,52.1,42.0,98,74,37,30.09,30.00,0,0,0,0.00
2013-4-15,70.5,66.4,62.2,62.7,54.0,46.0,94,67,43,30.15,29.88,0,0,0,0.63
2013-4-16,71.4,65.8,59.5,65.3,55.3,47.3,96,71,45,30.27,30.15,0,0,0,0.00
2013-4-17,74.8,67.4,59.9,70.5,57.9,49.7,98,74,45,30.24,30.12,0,0,0,0.00
2013-4-18,75.7,69.3,63.5,68.7,60.3,50.2,98,76,42,30.18,30.03,0,0,0,0.00
2013-4-19,75.6,71.4,67.3,68.2,65.0,60.5,98,81,60,30.03,29.85,0,0,0,0.91
2013-4-20,68.4,58.2,48.6,67.8,43.0,23.9,98,63,25,30.24,29.88,0,0,0,0.12
2013-4-21,66.6,56.5,44.8,43.5,33.1,23.5,82,46,24,30.36,30.21,0,0,0,0.00
2013-4-22,69.8,57.0,46.8,35.9,30.3,18.8,56,37,24,30.36,30.12,0,0,0,0.00
2013-4-23,67.3,58.5,51.6,48.7,41.7,35.7,89,55,34,30.21,30.12,0,0,0,0.00
2013-4-24,72.5,63.6,52.2,61.9,50.3,44.5,96,65,42,30.18,30.06,0,0,0,0.00
2013-4-25,76.3,66.7,60.4,62.8,56.6,45.1,95,72,35,30.24,30.06,0,0,0,0.59
2013-4-26,69.8,61.5,51.8,60.4,44.4,28.3,98,60,24,30.39,30.24,0,0,0,0.00
2013-4-27,70.3,64.7,60.8,56.0,44.9,28.3,80,52,25,30.33,30.24,0,0,0,0.00
2013-4-28,71.6,67.2,63.5,58.4,52.9,47.9,81,61,45,30.24,30.06,0,0,0,0.00
2013-4-29,70.9,66.5,64.2,65.9,60.6,50.9,98,83,55,30.06,29.97,0,0,0,1.69
2013-4-30,70.9,66.9,64.0,68.2,58.3,47.6,98,76,46,30.09,29.94,0,0,0,0.00
2013-5-1,72.5,65.4,59.5,60.4,52.0,41.9,87,64,36,30.18,30.06,0,0,0,0.00
2013-5-2,71.1,66.6,64.0,60.9,53.4,43.9,83,64,46,30.21,30.15,0,0,0,0.00
2013-5-3,68.9,63.3,58.6,53.0,43.8,26.6,75,51,26,30.15,30.06,0,0,0,0.00
2013-5-4,65.7,60.4,56.1,56.3,45.6,35.2,79,59,43,30.06,29.94,0,0,0,0.00
2013-5-5,71.2,64.5,59.7,61.4,54.4,45.0,91,71,39,29.97,29.83,0,0,0,0.12
2013-5-6,73.4,66.9,60.4,64.2,51.1,39.6,96,61,30,29.88,29.80,0,0,0,0.55
2013-5-7,70.0,62.3,55.9,53.3,43.4,32.0,75,52,27,29.97,29.88,0,0,0,0.24
2013-5-8,74.5,66.2,56.3,55.2,48.2,39.1,87,55,33,30.03,29.94,0,0,0,0.20
2013-5-9,77.7,70.2,63.1,55.3,48.9,40.4,66,48,27,30.09,29.97,0,0,0,0.00
2013-5-10,79.0,71.6,63.5,60.8,51.1,44.5,74,50,31,30.09,30.00,0,0,0,0.00
2013-5-11,77.7,72.6,68.7,68.6,58.6,46.5,91,64,35,30.03,29.85,0,0,0,0.00
2013-5-12,83.7,74.8,64.9,59.9,42.7,23.7,67,36,14,29.97,29.80,0,0,0,0.00
2013-5-13,73.6,64.6,55.6,35.3,25.1,16.8,38,23,13,30.12,29.97,0,0,0,0.00
2013-5-14,71.1,63.2,52.5,40.3,29.0,21.9,53,29,17,30.27,30.12,0,0,0,0.00
2013-5-15,83.5,71.1,62.6,47.1,42.3,32.2,51,36,19,30.15,29.97,0,0,0,0.00
2013-5-16,89.6,76.3,67.1,56.5,45.1,38.4,52,35,18,30.03,29.97,0,0,0,0.00
2013-5-17,85.3,74.7,67.6,55.4,50.0,40.2,61,43,21,30.09,30.00,0,0,0,0.00
2013-5-18,80.2,73.7,68.4,66.2,59.1,49.6,83,62,39,30.18,30.09,0,0,0,0.00
2013-5-19,79.2,74.1,71.4,68.2,61.4,51.6,88,66,40,30.15,30.06,0,0,0,0.00
2013-5-20,73.0,72.0,71.6,68.7,64.8,62.5,88,78,70,30.09,30.06,0,0,0,0.00
2013-5-21,77.9,73.7,71.2,73.1,65.1,54.4,92,76,47,30.09,29.97,0,0,0,0.04
2013-5-22,82.8,75.1,67.5,72.8,63.4,55.5,95,69,43,30.03,29.94,0,0,0,0.00
2013-5-23,81.9,74.7,68.5,72.7,64.6,53.3,93,73,42,29.97,29.85,0,0,0,0.35
2013-5-24,78.6,70.6,59.7,69.5,54.4,24.3,92,63,15,30.15,29.80,0,0,0,0.00
2013-5-25,78.3,64.4,50.4,39.9,29.9,20.1,55,30,13,30.30,30.15,0,0,0,0.00
2013-5-26,75.7,67.9,60.3,54.5,40.0,27.3,65,39,18,30.24,30.15,0,0,0,0.00
2013-5-27,79.0,72.5,63.0,61.4,49.7,40.8,91,48,28,30.27,30.18,0,0,0,0.00
2013-5-28,82.0,75.7,67.6,66.3,54.3,47.3,86,49,32,30.27,30.18,0,0,0,0.00
2013-5-29,83.1,77.1,71.6,59.7,51.4,46.3,63,42,29,30.27,30.15,0,0,0,0.00
2013-5-30,83.5,76.5,71.2,62.9,55.4,50.0,63,49,34,30.27,30.18,0,0,0,0.00
2013-5-31,83.5,77.7,70.5,74.0,60.4,53.4,91,57,38,30.24,30.15,0,0,0,0.00
2013-6-1,84.6,78.0,70.0,73.7,58.2,51.0,91,53,32,30.18,30.09,0,0,0,0.00
2013-6-2,85.3,78.2,73.6,68.9,62.0,55.6,78,59,37,30.12,29.94,0,0,0,0.00
2013-6-3,80.1,74.9,70.0,76.5,69.3,55.0,94,83,51,29.97,29.85,0,0,0,1.54
2013-6-4,82.6,75.6,70.0,78.2,67.2,57.8,98,77,46,30.06,29.91,0,0,0,0.00
2013-6-5,81.9,77.0,75.2,71.9,67.1,59.6,87,73,48,30.06,29.97,0,0,0,0.00
2013-6-6,82.4,77.2,72.9,73.5,68.7,61.2,95,76,49,29.97,29.77,0,0,0,0.91
2013-6-7,85.3,78.1,73.2,75.3,65.1,49.7,98,68,30,29.85,29.56,0,0,0,0.98
2013-6-8,79.0,78.3,76.3,74.2,69.0,67.6,91,74,69,29.91,29.85,0,0,0,0.00
2013-6-9,79.0,79.0,79.0,67.9,67.9,67.9,69,69,69,29.91,29.91,0,0,0,0.00
2013-6-10,79.0,79.0,79.0,67.9,67.9,67.9,69,69,69,29.91,29.91,0,0,0,0.00
2013-6-11,90.5,79.3,75.4,74.5,67.1,46.2,91,68,23,29.97,29.91,0,0,0,0.24
2013-6-12,88.7,81.7,72.5,77.2,67.6,58.8,97,66,39,29.97,29.88,0,0,0,0.00
2013-6-13,98.6,88.3,79.3,77.6,60.3,44.6,88,46,16,29.91,29.68,0,0,0,0.00
2013-6-14,87.1,79.7,72.9,66.7,44.1,32.7,75,32,16,30.00,29.71,0,0,0,0.00
2013-6-15,83.5,78.0,71.6,47.4,40.3,28.7,40,27,16,30.15,30.00,0,0,0,0.00
2013-6-16,85.3,79.3,73.0,49.2,44.4,39.6,41,30,21,30.18,30.06,0,0,0,0.00
2013-6-17,86.7,79.9,73.8,65.2,56.8,49.2,62,46,29,30.09,29.97,0,0,0,0.00
2013-6-18,89.2,80.7,73.8,73.0,61.5,51.8,88,56,29,30.00,29.83,0,0,0,0.20
2013-6-19,82.8,77.9,73.6,71.3,63.5,55.4,83,62,41,30.06,29.85,0,0,0,0.04
2013-6-20,83.1,76.2,69.3,66.7,54.6,42.0,79,50,27,30.18,30.03,0,0,0,0.04
2013-6-21,83.8,75.0,65.8,70.4,54.9,42.7,89,52,33,30.18,30.12,0,0,0,0.04
2013-6-22,83.7,76.1,71.1,74.7,66.2,56.4,97,74,41,30.15,30.09,0,0,0,0.00
2013-6-23,85.8,79.6,72.7,75.0,64.7,55.4,91,62,39,30.21,30.15,0,0,0,0.00
2013-6-24,86.7,80.9,78.1,70.6,65.2,53.6,77,60,34,30.24,30.15,0,0,0,0.00
2013-6-25,87.4,81.5,76.5,72.7,64.9,55.5,84,59,34,30.15,30.06,0,0,0,0.00
2013-6-26,91.6,80.8,75.0,70.5,62.3,50.6,85,56,27,30.06,29.94,0,0,0,0.00
2013-6-27,88.9,80.5,74.5,73.4,66.4,53.3,87,64,32,30.00,29.80,0,0,0,0.08
2013-6-28,92.7,83.5,78.4,74.0,66.0,52.9,80,58,27,29.83,29.65,0,0,0,0.00
2013-6-29,87.1,80.3,73.9,74.1,64.3,52.2,86,60,32,29.77,29.68,0,0,0,0.20
2013-6-30,85.1,78.6,73.6,74.9,69.5,56.6,92,75,46,29.88,29.74,0,0,0,0.83
2013-7-1,83.3,78.4,73.8,76.2,68.9,58.1,95,74,46,30.03,29.83,0,0,0,2.36
2013-7-2,82.2,78.6,73.9,74.8,68.8,58.4,93,73,46,30.18,30.03,0,0,0,0.59
2013-7-3,86.9,81.2,77.4,74.4,68.1,59.6,83,66,44,30.24,30.15,0,0,0,0.04
2013-7-4,87.1,82.6,79.2,70.7,63.4,56.9,74,54,37,30.27,30.21,0,0,0,0.00
2013-7-5,87.3,82.8,79.7,71.4,64.5,58.0,75,55,40,30.27,30.18,0,0,0,0.00
2013-7-6,87.3,82.7,77.4,66.6,59.0,52.5,64,46,32,30.24,30.15,0,0,0,0.00
2013-7-7,88.3,82.8,79.5,62.6,56.2,48.7,56,41,29,30.21,30.09,0,0,0,0.00
2013-7-8,88.2,81.3,73.2,70.7,58.3,50.3,85,49,29,30.21,30.12,0,0,0,0.00
2013-7-9,88.3,81.5,74.5,68.3,60.6,53.3,77,51,33,30.21,30.09,0,0,0,0.00
2013-7-10,88.7,82.6,77.0,71.9,61.1,54.0,80,50,32,30.15,29.97,0,0,0,0.00
2013-7-11,88.9,81.9,76.6,69.5,63.0,50.6,76,55,28,30.00,29.88,0,0,0,0.00
2013-7-12,80.8,76.7,73.8,73.7,68.3,62.9,94,76,55,29.97,29.88,0,0,0,0.43
2013-7-13,85.3,79.4,73.6,73.7,65.2,57.8,92,64,41,30.12,29.94,0,0,0,0.00
2013-7-14,86.9,82.0,75.4,75.5,63.4,58.2,81,54,39,30.24,30.12,0,0,0,0.28
2013-7-15,87.3,82.8,80.1,69.4,65.4,59.8,68,57,41,30.27,30.21,0,0,0,0.00
2013-7-16,88.5,82.5,75.2,77.3,61.8,51.8,94,53,30,30.27,30.18,0,0,0,0.00
2013-7-17,92.3,79.9,72.0,74.1,65.8,53.1,94,66,28,30.39,30.12,0,0,0,1.26
2013-7-18,89.1,80.7,72.9,80.6,66.2,56.2,98,67,33,30.56,30.30,0,0,0,0.00
2013-7-19,89.2,82.3,75.0,72.8,62.4,54.4,87,53,32,31.01,30.56,0,0,0,0.00
2013-7-20,86.9,81.1,77.2,69.2,62.7,51.8,69,55,32,31.01,28.44,0,0,0,0.00
2013-7-21,86.9,79.3,74.7,69.7,64.5,57.8,81,62,39,28.44,28.44,0,0,0,0.00
2013-7-22,91.8,82.2,74.7,72.1,62.0,50.3,87,56,25,28.44,28.44,0,0,0,0.00
2013-7-23,91.2,81.2,75.9,68.3,60.2,47.9,76,52,24,28.44,28.44,0,0,0,0.00
2013-7-24,86.0,80.3,76.3,72.7,66.1,57.3,84,63,40,28.44,28.44,0,0,0,0.00
2013-7-25,86.5,79.9,72.0,73.7,62.0,51.0,93,59,31,29.97,28.44,0,0,0,0.00
2013-7-26,85.1,79.3,72.7,67.6,60.5,56.9,76,53,40,30.06,29.97,0,0,0,0.00
2013-7-27,86.4,81.3,76.8,65.7,59.8,54.2,67,49,35,30.03,29.91,0,0,0,0.00
2013-7-28,88.0,80.8,74.8,72.0,66.0,59.0,88,63,38,30.00,29.91,0,0,0,0.00
2013-7-29,88.7,79.9,73.0,76.5,68.9,50.3,92,73,29,30.12,30.00,0,0,0,0.47
2013-7-30,86.5,79.6,74.1,77.2,67.3,56.8,98,70,40,30.18,30.09,0,0,0,0.08
2013-7-31,86.4,79.7,75.4,78.8,67.9,54.6,93,70,42,30.12,30.00,0,0,0,0.16
2013-8-1,85.1,78.3,74.1,74.1,66.7,52.6,95,70,33,30.00,29.91,0,0,0,0.87
2013-8-2,88.7,80.8,75.6,77.1,68.1,54.1,92,68,33,30.03,29.91,0,0,0,1.26
2013-8-3,88.3,82.9,77.5,76.9,66.3,58.2,90,61,38,30.03,29.91,0,0,0,0.00
2013-8-4,93.9,83.4,75.4,72.5,58.2,43.8,87,48,18,29.97,29.88,0,0,0,0.00
2013-8-5,86.4,82.6,79.3,47.0,39.5,36.1,31,22,19,30.06,30.00,0,0,0,0.00
2013-8-6,86.5,81.2,78.3,49.4,45.2,37.3,35,28,22,30.06,29.97,0,0,0,0.00
2013-8-7,86.0,79.6,73.0,69.8,55.8,45.9,80,46,29,30.09,30.00,0,0,0,0.00
2013-8-8,87.8,80.6,73.4,79.8,66.5,54.9,95,65,36,30.06,30.00,0,0,0,0.00
2013-8-9,89.8,83.4,78.1,76.9,64.9,54.0,88,56,32,30.09,30.00,0,0,0,0.00
2013-8-10,90.9,83.3,75.9,77.7,64.8,52.3,93,57,28,30.12,30.03,0,0,0,0.00
2013-8-11,95.2,84.6,77.9,74.6,63.8,47.0,88,53,20,30.12,30.03,0,0,0,0.00
2013-8-12,95.5,85.1,79.0,76.4,62.9,44.9,83,51,19,30.06,29.94,0,0,0,0.00
2013-8-13,96.6,85.1,79.2,75.8,63.3,44.2,82,51,17,29.97,29.83,0,0,0,0.00
2013-8-14,84.9,78.3,68.0,72.9,65.9,56.7,89,67,39,30.00,29.83,0,0,0,0.00
2013-8-15,70.5,66.9,64.0,69.6,65.2,58.9,98,94,76,30.09,30.00,0,0,0,0.35
2013-8-16,75.4,70.6,66.2,70.8,65.4,57.4,93,84,54,30.09,30.03,0,0,0,0.67
2013-8-17,82.9,74.4,69.4,71.1,64.6,55.8,97,74,40,30.15,30.03,0,0,0,0.00
2013-8-18,85.1,77.6,71.1,73.9,66.4,58.1,96,71,41,30.18,30.12,0,0,0,0.00
2013-8-19,88.0,79.5,75.6,80.3,71.6,54.2,94,79,35,30.15,30.03,0,0,0,0.51
2013-8-20,87.3,80.0,73.9,80.9,70.7,61.7,98,76,43,30.15,30.06,0,0,0,0.00
2013-8-21,88.9,82.1,75.4,81.4,66.5,55.6,96,63,34,30.21,30.09,0,0,0,0.00
2013-8-22,89.6,80.3,74.8,72.7,65.2,52.0,91,64,28,30.15,30.00,0,0,0,0.00
2013-8-23,93.7,81.9,74.7,71.2,61.4,43.4,88,54,18,30.03,29.94,0,0,0,0.00
2013-8-24,83.3,77.3,72.5,69.3,55.1,41.6,86,50,26,30.21,30.00,0,0,0,0.00
2013-8-25,82.0,74.9,65.8,58.0,46.3,38.2,75,39,22,30.30,30.21,0,0,0,0.00
2013-8-26,83.1,75.2,65.8,56.4,46.1,36.0,70,39,19,30.24,30.12,0,0,0,0.00
2013-8-27,84.7,76.1,67.3,66.6,50.1,37.4,91,46,20,30.12,30.00,0,0,0,0.00
2013-8-28,88.5,79.8,72.0,63.1,54.1,44.1,73,43,24,30.00,29.91,0,0,0,0.00
2013-8-29,94.1,82.2,74.8,68.0,57.4,44.5,66,45,19,29.94,29.85,0,0,0,0.00
2013-8-30,83.3,79.1,72.3,70.4,62.6,55.8,84,59,40,30.00,29.91,0,0,0,0.00
2013-8-31,86.9,80.8,72.9,77.0,65.8,57.0,95,63,39,29.97,29.88,0,0,0,0.00
2013-9-1,89.2,82.7,77.4,74.9,66.3,51.4,89,61,28,29.94,29.83,0,0,0,0.00
2013-9-2,93.9,84.0,79.3,73.3,63.9,46.5,78,54,20,29.91,29.80,0,0,0,0.00
2013-9-3,89.2,80.1,73.6,70.3,60.2,47.9,77,52,29,29.94,29.80,0,0,0,0.08
2013-9-4,87.1,81.0,72.7,71.6,64.2,54.7,90,59,34,30.06,29.91,0,0,0,0.00
2013-9-5,88.7,82.3,75.7,76.0,65.1,55.7,91,59,33,30.06,29.97,0,0,0,0.00
2013-9-6,87.6,78.6,70.0,63.0,53.1,39.1,67,44,19,30.09,30.00,0,0,0,0.00
2013-9-7,83.8,76.3,68.5,65.4,53.1,38.8,87,49,21,30.09,29.97,0,0,0,0.00
2013-9-8,87.1,78.0,67.8,66.7,54.8,43.7,90,49,23,30.00,29.88,0,0,0,0.04
2013-9-9,87.3,79.9,71.1,71.3,55.2,48.3,84,45,29,30.12,29.94,0,0,0,0.00
2013-9-10,87.6,80.7,72.7,69.6,56.4,43.4,82,46,23,30.21,30.12,0,0,0,0.00
2013-9-11,86.2,78.9,72.3,73.0,59.0,45.4,92,55,26,30.18,30.06,0,0,0,0.00
2013-9-12,88.0,78.6,70.3,71.2,57.0,44.0,92,53,25,30.09,29.85,0,0,0,0.00
2013-9-13,90.9,80.2,74.1,66.6,57.1,40.5,73,48,18,29.85,29.74,0,0,0,0.00
2013-9-14,81.5,76.1,69.8,53.9,46.1,36.9,55,35,25,30.06,29.80,0,0,0,0.00
2013-9-15,82.9,76.7,68.7,65.0,57.7,46.9,79,53,39,30.15,30.06,0,0,0,0.00
2013-9-16,88.3,80.5,74.1,70.4,60.4,48.5,85,53,26,30.12,30.00,0,0,0,0.04
2013-9-17,79.9,74.1,67.6,71.3,45.0,35.2,85,38,21,30.21,30.06,0,0,0,0.00
2013-9-18,79.5,68.5,59.4,51.3,39.1,33.0,59,36,20,30.21,30.12,0,0,0,0.00
2013-9-19,79.9,71.5,62.4,54.4,44.1,34.6,75,41,21,30.15,30.06,0,0,0,0.00
2013-9-20,82.2,73.6,64.2,60.5,48.0,36.2,84,46,20,30.06,29.94,0,0,0,0.00
2013-9-21,76.6,73.2,69.1,65.8,54.7,46.2,81,55,34,29.94,29.88,0,0,0,0.00
2013-9-23,77.0,69.9,63.9,47.9,38.6,33.3,56,34,21,30.03,29.97,0,0,0,0.00
2013-9-24,76.1,68.2,59.9,52.7,42.7,31.3,75,44,20,30.06,29.91,0,0,0,0.00
2013-9-25,77.4,70.6,63.9,61.2,47.8,43.3,83,46,31,29.94,29.80,0,0,0,0.04
2013-9-26,79.0,69.5,63.1,66.2,50.5,32.2,97,59,20,29.94,29.80,0,0,0,0.24
2013-9-27,76.6,66.8,64.6,43.9,41.7,33.0,45,41,21,30.09,29.94,0,0,0,0.00
2013-9-28,78.8,68.7,62.1,49.9,42.3,35.8,63,40,22,30.15,30.06,0,0,0,0.00
2013-9-29,79.0,66.9,59.4,57.1,45.3,29.5,91,53,17,30.09,30.00,0,0,0,0.00
2013-9-30,76.1,71.0,63.0,56.3,43.0,33.9,77,39,23,30.03,29.97,0,0,0,0.00
2013-10-1,78.8,68.6,59.0,58.0,45.6,33.1,93,52,20,30.12,30.03,0,0,0,0.00
2013-10-2,82.6,72.1,62.1,59.8,48.8,37.3,80,48,20,30.12,30.03,0,0,0,0.00
2013-10-3,80.4,72.6,64.2,66.5,59.0,47.9,96,66,33,30.15,30.06,0,0,0,0.00
2013-10-4,82.8,74.3,68.2,75.6,63.9,49.9,98,73,34,30.12,30.03,0,0,0,0.00
2013-10-5,82.2,74.3,67.3,71.4,62.6,46.9,98,71,32,30.12,30.03,0,0,0,0.00
2013-10-6,82.9,75.5,70.0,76.2,66.3,59.5,97,75,48,30.06,29.94,0,0,0,0.04
2013-10-7,78.3,76.0,73.2,73.3,68.4,63.0,94,78,61,29.94,29.80,0,0,0,0.67
2013-10-8,73.2,64.6,57.9,71.4,60.6,50.3,98,87,67,30.06,29.85,0,0,0,0.63
2013-10-9,74.7,64.2,57.9,57.5,46.8,40.0,98,57,30,30.03,30.00,0,0,0,0.00
2013-10-10,70.7,64.5,60.3,53.4,43.9,38.4,67,48,32,30.00,29.91,0,0,0,0.00
2013-10-11,78.3,69.5,63.1,62.0,50.8,36.6,81,56,23,29.97,29.88,0,0,0,0.00
2013-10-12,81.9,71.5,65.3,62.7,50.6,36.0,83,53,21,30.03,29.91,0,0,0,0.00
2013-10-13,75.0,68.8,63.1,64.5,57.0,49.1,93,68,41,30.09,30.03,0,0,0,0.00
2013-10-14,78.6,71.3,67.8,60.4,53.8,44.0,74,56,31,30.12,30.03,0,0,0,0.00
2013-10-15,72.0,67.2,62.1,56.9,49.6,42.1,73,54,35,30.09,30.00,0,0,0,0.00
2013-10-16,73.4,68.2,63.1,63.0,55.2,44.5,90,65,37,30.03,29.94,0,0,0,0.00
2013-10-17,78.4,69.8,61.3,66.1,56.2,45.1,98,67,32,29.97,29.85,0,0,0,0.00
2013-10-18,75.6,70.7,65.8,70.7,64.6,61.1,95,82,62,29.97,29.88,0,0,0,0.08
2013-10-19,79.7,71.3,66.0,74.6,66.2,48.6,98,86,45,29.94,29.85,0,0,0,0.16
2013-10-20,69.4,64.9,58.3,56.6,42.8,30.8,80,47,25,30.06,29.88,0,0,0,0.00
2013-10-21,71.1,62.9,56.8,51.3,43.4,35.5,76,51,29,30.12,30.00,0,0,0,0.00
2013-10-22,68.5,63.6,60.3,62.1,50.7,40.5,94,65,36,30.00,29.83,0,0,0,0.04
2013-10-23,73.4,63.9,55.2,62.7,40.9,15.7,98,55,14,30.00,29.71,0,0,0,0.08
2013-10-24,63.9,53.5,43.3,38.1,21.6,12.6,63,31,16,30.18,30.00,0,0,0,0.00
2013-10-25,62.2,52.8,43.2,38.6,24.6,10.8,64,37,16,30.36,30.12,0,0,0,0.00
2013-10-26,65.5,50.8,37.6,34.2,25.0,14.6,68,41,15,30.33,30.12,0,0,0,0.00
2013-10-27,67.3,57.0,45.9,48.5,31.6,18.4,80,42,18,30.12,30.06,0,0,0,0.00
2013-10-28,73.0,61.9,53.2,58.4,47.1,32.1,93,63,23,30.24,30.12,0,0,0,0.00
2013-10-29,72.0,63.2,55.0,59.5,51.5,39.5,98,71,32,30.30,30.21,0,0,0,0.00
2013-10-30,73.4,64.1,56.3,64.5,52.7,42.6,98,71,34,30.30,30.18,0,0,0,0.00
2013-10-31,75.9,67.2,57.9,68.0,58.6,50.5,98,76,42,30.21,29.97,0,0,0,0.00
2013-11-1,82.0,74.3,70.0,68.2,58.9,45.2,93,62,30,29.97,29.74,0,0,0,0.12
2013-11-2,72.1,65.8,55.6,70.0,52.8,30.1,97,68,23,29.91,29.71,0,0,0,0.91
2013-11-3,66.0,55.9,49.5,40.5,26.5,14.4,59,35,15,30.30,29.91,0,0,0,0.00
2013-11-4,64.4,55.0,47.3,27.6,20.7,13.4,38,27,18,30.44,30.30,0,0,0,0.00
2013-11-5,66.6,55.0,44.1,56.6,40.9,19.0,91,60,32,30.42,30.33,0,0,0,0.00
2013-11-6,71.8,64.7,58.1,65.3,50.0,38.6,95,61,35,30.33,30.09,0,0,0,0.12
2013-11-7,73.8,67.1,59.0,66.2,57.7,22.2,98,76,24,30.09,29.91,0,0,0,0.28
2013-11-8,60.1,52.1,43.0,31.5,18.1,8.9,57,28,14,30.30,30.03,0,0,0,0.00
2013-11-9,62.4,52.3,39.6,45.5,28.1,16.9,71,42,19,30.36,30.21,0,0,0,0.00
2013-11-10,69.1,59.1,53.1,46.0,34.8,17.7,73,45,15,30.24,30.12,0,0,0,0.00
2013-11-11,60.6,53.8,47.7,40.8,23.9,11.2,76,35,17,30.30,30.15,0,0,0,0.00
2013-11-12,69.8,55.4,38.8,44.4,25.4,7.2,87,39,14,30.36,30.00,0,0,0,0.00
2013-11-13,47.8,39.0,32.2,22.5,10.3,1.4,59,33,17,30.50,30.36,0,0,0,0.00
2013-11-14,57.0,43.2,29.7,34.9,17.5,5.5,72,39,15,30.50,30.33,0,0,0,0.00
2013-11-15,63.0,55.8,42.3,58.0,46.3,35.1,86,72,40,30.33,30.15,0,0,0,0.00
2013-11-16,70.2,64.0,60.3,66.5,57.5,47.3,98,81,45,30.21,30.15,0,0,0,0.00
2013-11-17,69.1,63.7,56.7,66.5,60.2,50.9,98,89,56,30.18,29.97,0,0,0,0.00
2013-11-18,82.8,70.4,63.9,72.6,58.8,26.3,98,72,24,29.97,29.80,0,0,0,0.04
2013-11-19,63.9,55.9,48.6,26.2,14.7,10.3,27,20,16,30.24,29.88,0,0,0,0.00
2013-11-20,59.9,51.9,44.1,32.2,23.0,15.5,46,32,25,30.33,30.21,0,0,0,0.00
2013-11-21,69.3,59.1,50.4,58.1,43.3,32.5,89,58,33,30.39,30.33,0,0,0,0.00
2013-11-22,68.9,63.6,60.1,63.3,58.5,47.9,97,84,50,30.33,30.12,0,0,0,0.00
2013-11-23,67.1,62.6,55.8,65.8,56.2,20.4,98,82,25,30.12,30.00,0,0,0,0.04
2013-11-24,55.8,42.1,33.3,20.4,2.2,-3.6,25,19,16,30.53,30.09,0,0,0,0.04
2013-11-25,47.3,38.7,29.5,23.4,2.9,-8.9,41,23,17,30.56,30.27,0,0,0,0.00
2013-11-26,68.5,61.1,43.7,68.0,56.1,26.7,98,84,51,30.27,29.62,0,0,0,1.61
2013-11-27,67.5,54.1,36.1,66.9,46.2,13.9,98,76,39,30.18,29.47,0,0,0,0.08
2013-11-28,45.9,36.6,30.4,25.0,9.1,-1.0,67,34,17,30.48,30.18,0,0,0,0.00
2013-11-29,55.9,43.1,32.2,24.0,15.4,7.0,70,36,15,30.53,30.44,0,0,0,0.00
2013-11-30,57.4,46.4,34.9,25.8,19.0,11.9,50,34,25,30.53,30.30,0,0,0,0.00
2013-12-1,60.4,52.0,46.8,48.3,36.8,25.9,89,57,40,30.30,30.00,0,0,0,0.00
2013-12-2,61.5,53.4,46.6,49.4,40.3,23.7,93,65,25,30.00,29.80,0,0,0,0.00
2013-12-3,62.4,53.5,43.5,54.7,44.2,33.8,93,73,35,30.00,29.85,0,0,0,0.08
2013-12-4,71.8,62.0,56.8,66.0,55.2,46.4,98,80,43,30.09,29.97,0,0,0,0.08
2013-12-5,70.0,63.2,55.6,67.0,58.5,53.1,98,86,58,30.18,30.06,0,0,0,0.00
2013-12-6,73.6,66.6,62.6,67.1,59.1,47.4,98,80,42,30.15,30.06,0,0,0,0.00
2013-12-7,75.2,59.1,46.0,69.3,54.8,42.7,98,87,44,30.36,30.06,0,0,0,0.12
2013-12-8,46.0,44.1,42.4,44.1,41.3,39.7,95,90,83,30.36,30.24,0,0,0,0.04
2013-12-9,59.2,51.3,42.6,57.9,49.5,41.3,98,94,71,30.24,30.03,0,0,0,0.00
2013-12-10,72.0,60.0,43.7,69.2,52.0,32.0,98,78,36,30.33,29.91,0,0,0,0.12
2013-12-11,50.2,43.2,35.4,40.8,19.4,4.6,87,43,16,30.44,30.27,0,0,0,0.00
2013-12-12,52.2,42.2,32.7,34.2,16.1,0.4,76,41,16,30.39,30.24,0,0,0,0.00
2013-12-13,52.2,41.5,30.4,35.2,18.0,5.2,65,43,16,30.42,30.27,0,0,0,0.00
2013-12-14,69.8,59.7,46.9,68.9,50.2,32.2,98,72,49,30.27,29.74,0,0,0,0.20
2013-12-15,67.3,57.2,44.6,62.6,42.2,24.4,86,60,27,30.09,29.74,0,0,0,0.08
2013-12-16,59.4,47.1,35.6,37.2,27.9,11.2,88,53,17,30.21,30.09,0,0,0,0.00
2013-12-17,66.4,53.8,43.2,33.3,21.3,12.3,54,30,15,30.18,30.03,0,0,0,0.00
2013-12-18,55.8,48.1,35.6,22.8,13.3,4.0,50,27,15,30.33,30.03,0,0,0,0.00
2013-12-19,60.4,46.1,33.3,44.8,26.8,9.8,89,54,14,30.36,30.24,0,0,0,0.00
2013-12-20,74.7,60.3,50.0,59.8,47.7,31.4,95,70,21,30.24,30.15,0,0,0,0.00
2013-12-21,72.0,63.4,55.0,65.7,57.5,50.3,96,82,47,30.18,30.06,0,0,0,0.00
2013-12-22,73.8,66.8,61.7,68.0,60.4,45.8,97,82,42,30.15,30.06,0,0,0,0.00
2013-12-23,69.8,65.7,61.0,69.0,64.0,57.0,98,95,68,30.12,30.03,0,0,0,0.16
2013-12-24,61.0,50.5,39.9,60.4,32.7,10.0,98,56,20,30.39,30.03,0,0,0,0.04
2013-12-25,48.0,39.1,30.6,12.2,5.8,-1.0,34,25,17,30.48,30.33,0,0,0,0.00
2013-12-26,48.7,42.6,36.1,35.6,25.2,11.7,76,51,34,30.33,30.21,0,0,0,0.00
2013-12-27,57.0,45.6,37.9,35.2,17.6,7.1,75,36,15,30.42,30.30,0,0,0,0.00
2013-12-28,58.6,48.4,33.3,48.8,22.5,7.0,80,40,14,30.39,30.06,0,0,0,0.16
2013-12-29,72.0,62.8,51.6,67.8,52.8,33.3,98,75,26,30.06,29.74,0,0,0,1.06
2013-12-30,55.6,50.7,46.6,51.2,44.9,37.4,98,82,52,30.15,29.94,0,0,0,0.00
2013-12-31,56.1,50.3,42.8,45.9,29.6,12.4,84,48,20,30.36,30.12,0,0,0,0.00
2014-1-1,51.8,45.6,39.6,45.5,32.5,12.4,94,65,21,30.39,30.12,0,0,0,0.08
2014-1-2,59.0,51.7,47.3,58.4,50.2,36.9,98,95,56,30.15,29.59,0,0,0,0.67